Location: Campillo
(40.8621°N, 4.2488°W)
Time: 00:58:33
(UTC+00:00)

USA 308 - Pass Details

Date: 22 September 2021
Orbit: 566 x 573 km, 54.0° (Epoch: 23 September)

Event Time Altitude Azimuth Distance (km) Brightness Sun altitude
Rises 19:17:44 0° 297° (WNW) 2,767 8.0 -12.8°
Reaches altitude 10° 19:20:59 10° 324° (NW) 1,872 6.3 -13.4°
Maximum altitude 19:23:16 14° 356° (N) 1,629 5.4 -13.8°
Drops below altitude 10° 19:25:32 10° 28° (NNE) 1,875 5.4 -14.3°
Enters shadow 19:27:02 - 43° (NE) 2,238 5.6 -14.5°
